Weather in Tucupita

Venezuela     9°03′32″N   62°02′33″W
temp.,
°C
wind,
m/s
gust,
m/s
humid.,
%
clouds,
%
prec.,
mm/h
press.,
hPa
HPBL,
m
15 may, sat
sat1523:00+23e2109459 0.0 1014423
02:00+22e179978 0.0 1013233
05:00+22ene159953 0.0 1013157
08:00+26e278232 0.1 1015599
11:00+32e355190 0.1 10142011
14:00+29ene256586 0.1 1011736
17:00+29e366120 0.0 10101021
20:00+24ene298631 0.0 1012501
16 may, sun
sun1623:00+23e2109828 0.0 1014390
02:00+22e199936 0.1 1012347
05:00+22e179941 0.2 1013274
08:00+26e288383 0.3 1015570
11:00+30e3656100 0.3 10141717
14:00+30ene3555100 0.3 10121458
17:00+29ene2663100 0.0 1010631
20:00+24ene298430 0.0 1013243
17 may, mon
mon1723:00+22e189289 0.0 1014271
02:00+22ene1296100 0.0 101364
05:00+22e1598100 0.0 1013142
08:00+26e278180 0.1 1015620
11:00+30e356488 0.5 10141340
14:00+31ene3561100 2.1 10111476
17:00+27ene378415 1.7 1011684
20:00+23ene189811 2.8 1013326
18 may, tue
tue1823:00+23e1810066 1.3 1015314
02:00+23ene139938 1.5 1013134
05:00+22ene1399100 0.3 1013120
08:00+24e2695100 1.0 1015349
11:00+27e3683100 1.9 1014901
14:00+28e358199 5.2 1012873
17:00+26e2788100 1.3 1011512
20:00+23ene21099100 3.6 1013379
19 may, wed
wed1923:00+23e2109984 0.7 1015476
02:00+22ene2109929 0.7 1013423
05:00+22ene159975 0.0 1013159
08:00+25e29936 0.0 1015516
11:00+31ese475654 0.0 10141707
14:00+33e364323 0.0 10112377
17:00+30ene37574 0.0 1011797
20:00+25e310835 0.0 1013530